Regional Weather Roundup
Issued by NWS

Home | Current Version | Previous Version | Text Only | Print | Product List | Glossary On
Versions: 1 2 3 4 5 6 7 8 9 10 11 12 13 14 15 16 17 18 19 20 21 22 23 24 25 26 27 28 29 30 31 32 33 34 35 36 37 38 39 40 41 42 43 44 45 46 47 48 49 50
000
ASUS43 KLMK 210102
RWRKY
KENTUCKY REGIONAL WEATHER ROUNDUP
NATIONAL WEATHER SERVICE LOUISVILLE KY
800 PM EST MON NOV 20 2017

NOTE "FAIR" INDICATES FEW OR NO CLOUDS BELOW 12,000 FEET
WITH NO SIGNIFICANT WEATHER AND/OR OBSTRUCTIONS TO VISIBILITY.

KYZ001>023-026-027-061>063-070>075-210200-
WESTERN AND SOUTH CENTRAL KENTUCKY

CITY           SKY/WX    TMP DP  RH WIND       PRES   REMARKS
PADUCAH        CLEAR     46  22  38 VRB3      30.04S
HENDERSON      CLEAR     41  26  55 SE9       30.03F
OWENSBORO      CLEAR     41  26  55 S5        30.06S
HOPKINSVILLE   CLEAR     46  22  39 SE7       30.05F
BOWLING GREEN  CLEAR     39  25  57 CALM      30.08F
GLASGOW        NOT AVBL
$$

KYZ024-025-028>034-038-045-046-053-210200-
NORTH CENTRAL KENTUCKY

CITY           SKY/WX    TMP DP  RH WIND       PRES   REMARKS
LOUISVILLE/SDF PTCLDY    41  25  53 SE9       30.06F
LOUISVILLE/LOU CLEAR     42  26  53 SE6       30.07F
FORT KNOX      CLEAR     38  23  54 S7        30.05S WCI  33
$$

KYZ035>037-039>044-047>052-055>060-089>105-210200-
NORTHEAST KENTUCKY

CITY           SKY/WX    TMP DP  RH WIND       PRES   REMARKS
LEXINGTON      CLEAR     40  24  53 S7        30.08S
COVINGTON      CLOUDY    36  28  73 S8        30.05F WCI  30
FRANKFORT      CLOUDY    36  25  64 CALM      30.07S
$$

KYZ054-064>069-076>088-106>120-210200-
SOUTHEAST KENTUCKY

CITY           SKY/WX    TMP DP  RH WIND       PRES   REMARKS
JACKSON        CLOUDY    43  22  43 SW3       30.09F
LONDON         CLEAR     37  26  64 S5        30.10F WCI  33
SOMERSET       CLEAR     39  28  65 S3        30.12S
MIDDLESBORO    CLEAR     36  28  74 CALM      30.14S
MONTICELLO     CLEAR     35  26  69 CALM      30.12S
$$





USA.gov is the U.S. government's official web portal to all federal, state and local government web resources and services.